Theta_e
347 339 340 341 342 343 342 342 341 339 339 339 340 337 330 330 337 333 336 332 330 330 329 336 339 333 336 338 339 339 337 335 336 339 338 338 343 344 345 345 338 335 335
349 345 343 342 344 343 343 341 341 341 340 341 341 337 330 337 334 342 331 327 333 336 334 328 335 335 334 335 339 340 339 338 334 340 340 338 342 343 341 340 334 336 334
350 346 346 346 343 343 342 342 340 343 343 341 342 333 337 337 334 341 337 333 342 334 333 342 331 334 338 338 339 338 340 345 347 348 346 339 340 335 332 332 334 335 333
350 349 345 342 340 340 337 333 332 335 340 341 336 335 337 335 338 339 341 335 338 336 330 335 337 335 333 332 335 336 340 345 347 347 347 344 341 336 334 335 334 330 326
344 347 337 333 334 337 337 336 334 335 336 338 337 338 338 338 341 341 339 337 336 337 337 336 331 330 333 331 332 337 342 345 346 346 344 342 336 337 339 340 339 337 337
346 344 332 338 339 341 342 340 345 344 342 338 340 339 340 340 340 337 336 335 340 339 338 332 332 331 331 332 335 339 344 346 348 346 345 344 338 340 337 332 334 330 336
349 337 336 335 340 341 340 340 341 339 339 340 341 338 338 339 335 340 338 334 338 338 338 335 333 333 330 333 337 344 343 343 345 346 344 336 332 335 331 334 330 328 334
347 345 337 341 342 343 341 337 341 341 341 341 340 340 337 334 333 334 335 333 338 338 334 335 333 332 331 329 339 344 345 344 345 343 341 334 337 335 334 326 326 333 327
345 348 342 334 339 341 341 341 340 339 341 344 337 335 331 330 334 337 335 337 339 339 338 335 333 329 330 332 340 344 341 344 345 345 336 335 336 335 333 335 334 334 334
345 346 348 343 346 343 342 340 340 341 339 335 330 328 334 340 342 339 335 336 337 339 334 334 332 329 326 329 340 342 343 345 344 344 340 335 337 334 333 333 336 330 333
343 346 346 347 349 346 340 340 339 338 335 334 337 341 347 347 344 341 334 332 336 338 335 336 335 333 334 340 341 342 343 344 342 339 334 335 336 336 335 334 332 331 331
341 343 343 346 347 348 347 344 338 338 340 343 346 346 347 349 346 339 338 336 335 336 337 341 339 340 346 344 342 339 340 342 343 338 326 334 337 335 331 332 332 332 329
340 339 345 346 344 348 344 344 343 348 348 343 347 346 348 347 346 346 341 341 339 336 341 344 345 345 346 346 344 341 339 343 343 337 328 329 335 327 332 329 330 329 330
341 340 342 344 345 347 341 348 347 345 350 343 344 346 345 346 346 341 345 347 347 347 347 345 346 347 343 345 346 345 343 343 342 340 323 326 328 326 333 334 330 329 330
340 342 343 342 348 348 344 346 345 346 345 345 342 348 346 349 347 348 346 343 347 347 343 344 338 346 346 342 341 343 342 344 344 343 325 324 324 333 335 323 323 324 324
339 343 343 342 345 347 344 348 349 346 347 346 341 346 347 347 348 349 348 345 346 345 348 349 342 344 343 346 343 344 343 343 345 345 342 329 327 326 325 324 324 324 323
340 342 343 346 342 347 345 348 346 345 348 343 345 346 349 350 346 346 350 346 347 344 345 340 340 342 343 340 346 345 344 344 344 345 344 344 343 340 340 335 331 325 325
342 341 344 344 346 343 346 347 341 346 348 344 349 345 338 351 349 347 342 347 348 346 340 341 343 342 343 343 345 343 344 343 344 344 343 342 345 344 344 338 333 336 337
343 342 343 345 346 345 349 344 346 347 347 345 348 346 342 348 344 347 341 345 348 345 345 341 343 342 339 342 341 341 341 344 342 341 343 343 341 340 340 340 341 340 335
343 342 344 346 346 346 350 345 348 346 347 347 347 347 346 346 343 348 350 343 349 346 345 345 343 342 342 341 343 340 343 341 342 342 341 344 338 342 342 340 340 342 343
343 343 345 346 346 345 349 346 347 347 347 349 349 347 346 348 345 347 350 341 347 343 344 344 341 341 342 340 339 338 339 340 341 342 341 341 341 342 339 341 342 342 345
344 344 344 346 347 345 349 348 349 347 348 345 350 352 345 350 345 346 348 344 347 347 340 346 339 342 342 337 341 344 343 340 342 341 341 339 342 342 342 341 341 340 341
344 344 343 346 348 346 350 347 349 349 349 347 351 351 346 350 347 350 347 347 344 346 347 344 343 345 345 339 339 343 342 342 342 339 338 342 342 342 343 343 342 337 335
345 345 344 346 348 346 347 346 349 349 349 343 351 349 344 349 351 351 347 348 344 346 349 342 341 346 344 341 341 342 342 342 341 342 343 343 340 341 341 343 344 343 343
346 346 345 344 347 346 344 348 347 349 347 349 347 349 350 347 349 353 348 343 343 349 350 345 345 345 350 345 344 340 341 341 341 341 343 342 342 342 343 340 343 343 343
346 346 346 346 344 344 340 346 346 345 347 348 345 352 351 350 346 351 352 346 343 345 350 345 346 340 342 344 347 342 340 341 341 341 342 340 343 340 340 341 341 341 342
Wind_Speed
18 21 19 16 14 14 12 12 11 9 9 9 10 11 11 11 12 12 13 12 11 11 9 8 9 9 10 11 12 13 14 14 15 16 17 18 19 19 20 20 13 17 17
18 17 18 16 15 13 12 12 10 9 10 9 9 9 10 10 11 12 14 13 13 11 9 10 9 9 10 10 12 14 14 15 17 19 16 15 16 16 16 12 14 17 16
19 20 19 17 14 12 12 11 9 10 10 9 8 8 9 10 11 12 14 13 13 12 13 12 13 11 11 13 14 15 15 16 19 20 16 13 15 13 13 13 15 16 16
19 19 20 17 14 13 10 9 8 9 10 10 8 9 8 9 10 11 12 13 12 13 13 13 14 12 12 12 14 15 16 17 18 20 19 10 14 15 14 15 17 15 16
21 18 18 15 14 13 11 11 10 10 10 10 10 9 10 10 10 10 11 12 13 14 14 14 14 13 12 14 15 16 16 15 18 16 14 8 13 15 16 16 16 15 15
22 18 18 16 15 14 13 12 12 11 11 11 11 10 10 11 10 11 11 11 12 13 14 14 13 14 15 17 18 19 18 18 18 15 11 11 12 14 14 12 13 13 15
22 18 19 17 15 14 14 13 12 12 12 12 12 11 11 11 11 11 9 11 13 13 14 14 14 14 16 18 21 21 21 17 15 15 7 9 13 13 14 14 14 15 14
22 20 20 18 15 14 13 13 13 13 13 13 13 13 12 12 11 10 9 13 14 15 16 16 15 15 16 18 21 20 18 18 12 12 5 12 15 13 13 13 14 13 13
24 19 17 17 15 14 14 14 14 15 15 15 14 13 13 13 12 11 14 16 16 15 15 15 16 17 18 19 20 18 20 18 16 12 11 13 13 13 13 14 13 13 13
23 18 16 14 14 14 14 15 16 16 16 15 15 16 18 17 16 16 14 15 15 16 16 16 17 19 21 24 24 22 17 17 13 9 5 12 12 12 12 12 12 11 11
22 20 17 16 17 11 14 16 16 16 16 18 17 18 16 13 11 13 13 14 14 15 16 16 18 20 24 23 20 13 11 14 13 4 8 12 11 12 10 10 10 10 9
22 22 19 18 15 12 13 16 16 16 18 13 17 13 15 14 7 13 15 15 16 16 15 13 12 11 15 14 17 16 15 19 3 6 7 11 11 10 9 9 9 8 8
22 24 24 21 15 19 8 14 12 11 11 10 4 12 9 11 7 7 10 16 16 16 12 8 8 8 4 4 14 13 12 14 2 9 7 10 9 8 9 9 9 7 7
23 25 24 19 17 20 9 15 12 10 17 5 6 10 12 9 4 3 9 8 12 12 7 2 11 3 10 13 12 10 8 13 3 8 6 6 7 8 8 7 7 6 5
23 25 23 20 16 16 18 15 10 12 16 13 7 9 8 5 3 1 3 13 9 9 5 11 10 7 7 6 7 10 10 12 4 8 7 7 6 6 5 5 4 4 3
25 23 23 20 16 16 18 8 15 8 15 4 1 6 4 2 7 7 2 1 14 12 10 10 4 7 10 8 4 8 12 5 9 6 10 9 8 6 4 3 2 2 2
26 21 24 18 20 15 18 12 12 14 9 6 10 8 10 2 2 4 5 5 3 8 7 9 6 5 7 7 10 12 10 9 3 4 6 6 8 10 9 6 4 2 1
25 25 22 19 18 18 18 16 16 18 8 11 6 10 10 7 5 3 5 6 10 6 3 9 6 5 8 6 6 7 9 6 3 4 8 6 5 6 7 10 6 5 4
26 27 22 22 20 19 15 19 17 11 13 11 9 4 4 5 9 2 7 9 8 5 7 6 7 6 6 6 11 9 10 5 6 5 3 2 2 5 5 7 8 9 9
27 28 21 22 22 20 17 16 13 11 11 9 11 11 7 4 8 7 6 7 6 7 7 8 6 9 5 6 10 8 8 2 4 2 5 5 7 3 6 8 2 7 9
30 28 26 24 25 24 20 19 17 15 13 13 16 10 6 3 4 8 8 9 7 9 9 7 5 7 6 9 7 6 3 7 5 4 3 3 5 3 3 5 5 6 7
32 30 31 28 26 25 19 20 17 12 13 17 14 8 5 5 3 6 6 7 3 7 9 4 10 9 5 6 3 6 4 4 9 5 5 1 4 2 3 3 6 5 6
35 33 34 32 28 26 23 23 19 18 15 10 18 13 8 9 5 9 6 9 10 6 5 9 11 3 3 3 2 5 4 3 6 3 2 6 2 4 4 7 4 7 4
37 36 33 36 30 30 27 24 22 19 16 18 17 11 9 10 7 6 5 10 10 10 8 4 7 7 8 6 3 1 4 1 1 3 5 7 6 4 5 5 7 9 9
38 39 35 35 35 31 33 26 26 22 21 17 15 16 18 12 11 10 8 7 9 8 6 9 8 8 5 4 5 4 1 1 1 3 1 9 3 2 5 3 2 9 10
38 39 37 37 39 37 35 31 29 29 22 16 16 18 18 11 13 14 12 8 7 10 10 9 8 11 11 9 4 11 4 6 5 6 3 6 6 3 2 3 6 5 8
Wind_Direction
150 164 164 152 149 141 134 132 140 141 128 115 93 79 76 78 72 67 65 61 67 75 82 99 97 103 102 101 101 99 95 92 90 86 87 91 89 93 92 82 81 83 84
147 170 163 156 152 143 138 132 126 132 138 122 95 78 81 83 77 76 64 72 75 87 87 94 107 107 108 104 105 100 96 95 91 85 81 86 92 97 92 102 85 89 87
146 159 151 150 149 143 138 132 124 122 133 133 113 91 92 88 86 77 71 72 75 79 88 86 93 104 111 108 109 106 103 95 91 93 82 72 92 91 95 94 89 90 88
144 138 148 147 143 140 139 132 125 124 121 124 116 105 101 94 90 87 81 74 85 88 90 96 90 99 108 121 111 111 108 99 101 93 100 87 91 92 90 90 88 84 87
135 147 151 147 139 139 132 131 134 133 128 121 115 116 105 98 92 86 86 85 92 92 91 94 97 95 105 109 114 116 103 95 96 98 96 83 93 97 97 93 90 86 87
141 161 149 142 139 138 134 130 123 125 122 120 120 115 107 97 87 89 87 97 96 99 93 92 98 93 100 110 116 108 96 91 93 87 92 110 94 96 94 95 98 97 91
143 153 143 139 135 132 130 126 124 124 123 118 116 113 102 95 93 93 92 105 106 100 91 96 92 96 100 113 112 108 108 108 107 113 98 106 101 101 97 100 94 94 90
132 138 138 135 133 129 130 128 124 123 118 114 114 109 106 102 100 95 100 111 107 101 97 93 93 92 100 115 118 117 104 90 102 110 106 106 102 103 101 97 96 96 89
134 135 136 140 135 134 128 127 126 123 119 112 108 105 101 98 92 97 110 112 106 106 101 97 95 96 100 112 119 107 91 96 106 106 94 100 102 102 98 98 96 91 91
137 137 141 133 134 133 129 129 130 126 118 105 98 99 96 90 86 87 106 118 112 109 105 98 96 95 95 99 109 108 115 127 101 105 88 102 103 99 98 100 97 93 96
138 147 141 144 126 145 138 132 131 122 112 104 106 109 93 77 76 94 103 108 109 107 105 107 105 104 106 101 94 92 85 117 138 79 116 106 101 97 97 102 100 98 95
148 155 151 149 149 123 144 132 128 116 111 102 100 107 108 119 96 95 101 102 97 107 112 106 109 113 106 104 107 90 83 133 130 43 122 114 114 106 105 104 102 99 93
160 153 150 149 137 155 142 118 109 122 124 138 129 127 103 119 130 117 104 105 103 103 104 108 98 96 10 57 117 99 105 147 118 35 105 114 118 107 112 105 105 100 100
162 150 154 159 158 174 141 138 167 147 158 95 174 136 155 151 108 44 122 147 108 117 145 129 75 141 83 72 95 82 101 163 53 40 98 111 116 115 114 110 109 106 104
158 155 153 159 169 159 159 173 162 149 141 180 219 134 170 132 121 44 100 108 146 169 72 91 87 111 96 89 113 92 105 83 93 62 71 89 96 100 105 99 110 118 111
163 155 157 164 174 146 161 172 175 159 160 159 227 189 71 134 166 166 117 208 83 142 103 109 105 140 131 115 95 88 113 102 69 43 64 73 74 71 61 65 88 103 117
165 162 162 164 179 179 171 158 158 166 153 160 185 218 148 242 110 122 85 125 140 153 119 156 124 103 96 88 106 97 98 117 111 50 67 63 63 67 44 28 14 5 6
169 172 166 170 174 183 174 159 170 159 169 184 201 243 185 156 152 151 161 143 115 118 90 142 133 145 132 163 116 144 119 102 101 63 67 42 41 38 16 25 32 17 350
173 173 175 174 173 178 180 176 174 164 170 150 177 237 197 189 151 142 73 104 142 179 142 116 110 123 141 161 127 111 96 110 85 60 91 70 21 1 43 13 27 33 18
179 178 177 179 179 180 186 176 180 162 183 183 209 219 239 191 155 163 124 144 143 138 146 127 161 163 101 105 164 120 135 120 97 324 102 134 15 29 30 21 1 0 11
177 181 180 179 188 185 185 176 172 189 199 177 203 233 169 175 193 161 160 167 181 176 166 152 161 123 113 146 129 115 179 164 149 220 186 144 62 115 11 350 19 345 360
179 185 184 183 194 195 188 170 182 181 196 181 193 163 175 198 199 179 125 147 211 138 159 175 179 149 108 185 188 353 207 203 209 135 151 200 97 246 162 104 291 245 317
183 191 188 188 198 200 183 177 187 193 198 191 191 213 200 186 217 172 174 182 177 169 192 184 157 167 175 179 292 15 75 61 140 189 111 214 322 163 228 319 316 356 206
185 193 196 192 199 203 183 190 190 192 190 194 206 206 204 194 204 203 212 191 190 196 199 202 189 204 192 150 236 188 318 78 79 95 197 201 282 199 215 278 257 318 339
188 190 200 200 197 206 190 191 188 193 198 202 208 194 204 196 197 199 229 215 198 178 201 185 195 208 205 234 200 187 178 184 269 308 238 203 123 203 262 15 236 289 314
190 190 198 205 205 207 199 189 197 191 193 199 203 188 194 207 206 197 223 235 212 189 226 214 199 201 192 198 171 192 150 179 253 263 268 139 160 159 224 292 268 243 285